{"data":{"norad_id":65417,"intl_designator":"2025-192P","name":"STARLINK-34255","alt_names":[],"object_type":"PAYLOAD","status":"ACTIVE","operator":null,"country":"US","launch_date":"2025-08-31","launch_site_code":"AFETR","launch_vehicle":null,"mission":null,"orbit_class":"UNKNOWN","rcs_meters":null,"size_class":null,"mass_kg":null,"dimensions":null,"purposes":["comms"],"wikipedia_slug":null,"has_3d_model":false,"image_url":null,"decayed_at":null,"tle_current":{"epoch":"2026-09-20T21:53:59.584416Z","epoch_age_seconds":79220,"freshness":"FRESH","line1":"1 65417U 25192P   26263.91249519  .00010923  00000+0  33388-3 0  9993","line2":"2 65417  53.1602  43.4341 0001107  83.3266 276.7862 15.34405490 59308","mean_motion":15.3440549,"eccentricity":0.0001107,"inclination_deg":53.1602,"raan_deg":43.4341,"arg_perigee_deg":83.3266,"mean_anomaly_deg":276.7862,"bstar":0.00033388,"rev_number":5930,"period_min":93.847422300346,"perigee_km":461.92964361054,"apogee_km":463.44420202705,"semimajor_km":6840.8239228188,"source":"CELESTRAK","updated_at":"2026-09-21T09:00:35.604901Z"}}}